IBS15PY GCRR-LEMD

Flight info

Callsign IBS15PY
Flight time N/A
Altitude 34000
Route DESUM DCT AKUDA DCT PESAS N858 PARKA Z165 SOTUK
Aircraft A21N/M-SDE2E3FGHIRWXY/LB1

Departure

Time N/A
Airport César Manrique-Lanzarote Airport (GCRR)

Arrival

Time 2026-05-05 11:23
Airport Adolfo Suárez Madrid–Barajas Airport (LEMD)
Time Latitude Longitude Altitude Speed Heading
2026-05-05 11:08 39.79670 -3.95818 12010 ft 319 kts 43°
2026-05-05 11:09 39.81224 -3.93765 12004 ft 317 kts 43°
2026-05-05 11:09 39.82765 -3.91719 11540 ft 319 kts 43°
2026-05-05 11:09 39.84346 -3.89627 10694 ft 327 kts 43°
2026-05-05 11:09 39.85929 -3.87527 10033 ft 324 kts 44°
2026-05-05 11:10 39.87488 -3.85455 9515 ft 315 kts 44°
2026-05-05 11:10 39.88993 -3.83451 9151 ft 303 kts 45°
2026-05-05 11:10 39.90437 -3.81524 8941 ft 291 kts 44°
2026-05-05 11:10 39.91827 -3.79679 8872 ft 276 kts 44°
2026-05-05 11:11 39.93123 -3.77952 8927 ft 260 kts 44°
2026-05-05 11:11 39.94385 -3.76269 8915 ft 260 kts 44°
2026-05-05 11:11 39.95650 -3.74588 8908 ft 260 kts 44°
2026-05-05 11:11 39.96911 -3.72903 8901 ft 260 kts 44°
2026-05-05 11:12 39.98174 -3.71220 8920 ft 260 kts 44°
2026-05-05 11:12 39.99436 -3.69536 8905 ft 260 kts 44°
2026-05-05 11:12 40.00695 -3.67855 8901 ft 259 kts 44°
2026-05-05 11:12 40.01956 -3.66166 8922 ft 260 kts 44°
2026-05-05 11:13 40.03219 -3.64480 8887 ft 259 kts 44°
2026-05-05 11:13 40.04483 -3.62791 8920 ft 260 kts 44°
2026-05-05 11:13 40.05745 -3.61104 8860 ft 259 kts 44°
2026-05-05 11:13 40.07003 -3.59423 8711 ft 259 kts 44°
2026-05-05 11:14 40.08259 -3.57746 8503 ft 258 kts 44°
2026-05-05 11:14 40.09492 -3.56097 8287 ft 257 kts 44°
2026-05-05 11:14 40.10739 -3.54427 8051 ft 256 kts 44°
2026-05-05 11:14 40.11979 -3.52765 7802 ft 255 kts 44°
2026-05-05 11:15 40.13215 -3.51101 7572 ft 254 kts 45°
2026-05-05 11:15 40.14439 -3.49445 7346 ft 253 kts 45°
2026-05-05 11:15 40.15665 -3.47790 7117 ft 253 kts 44°
2026-05-05 11:15 40.16890 -3.46154 6892 ft 252 kts 43°
2026-05-05 11:16 40.18180 -3.44594 6670 ft 251 kts 40°
2026-05-05 11:16 40.19478 -3.43073 6446 ft 250 kts 40°
2026-05-05 11:16 40.20767 -3.41596 6210 ft 249 kts 36°
2026-05-05 11:16 40.22243 -3.40382 5981 ft 247 kts 27°
2026-05-05 11:17 40.23728 -3.39319 5760 ft 246 kts 27°
2026-05-05 11:17 40.25261 -3.38360 5525 ft 241 kts 14°
2026-05-05 11:17 40.26867 -3.38050 5324 ft 229 kts
2026-05-05 11:17 40.28416 -3.37963 5113 ft 218 kts
2026-05-05 11:18 40.29920 -3.37878 4962 ft 216 kts
2026-05-05 11:18 40.31418 -3.37869 4973 ft 207 kts 346°
2026-05-05 11:18 40.32638 -3.38558 5011 ft 180 kts 325°
2026-05-05 11:18 40.33543 -3.39538 4980 ft 164 kts 317°
2026-05-05 11:19 40.34438 -3.40478 4971 ft 165 kts 319°
2026-05-05 11:19 40.35341 -3.41405 4864 ft 165 kts 320°
2026-05-05 11:19 40.36248 -3.42328 4674 ft 165 kts 320°
2026-05-05 11:19 40.37164 -3.43258 4468 ft 168 kts 320°
2026-05-05 11:20 40.38087 -3.44195 4232 ft 167 kts 321°
2026-05-05 11:20 40.39008 -3.45130 4004 ft 167 kts 320°
2026-05-05 11:20 40.39915 -3.46052 3800 ft 165 kts 321°
2026-05-05 11:20 40.40832 -3.46982 3587 ft 167 kts 321°
2026-05-05 11:21 40.41745 -3.47910 3389 ft 165 kts 321°
2026-05-05 11:21 40.42598 -3.48777 3167 ft 148 kts 320°
2026-05-05 11:21 40.43397 -3.49589 2945 ft 144 kts 319°
2026-05-05 11:21 40.44188 -3.50393 2753 ft 144 kts 320°
2026-05-05 11:22 40.44968 -3.51187 2562 ft 144 kts 320°
2026-05-05 11:22 40.45762 -3.51995 2371 ft 142 kts 320°
2026-05-05 11:22 40.46539 -3.52786 2173 ft 143 kts 320°
2026-05-05 11:22 40.47323 -3.53584 1988 ft 143 kts 320°
2026-05-05 11:23 40.48064 -3.54345 1937 ft 117 kts 321°
2026-05-05 11:23 40.48569 -3.54858 1949 ft 67 kts 321°
2026-05-05 11:23 40.48746 -3.55065 1955 ft 17 kts 300°
2026-05-05 11:23 40.48802 -3.55211 1957 ft 19 kts 291°
2026-05-05 11:24 40.48845 -3.55354 1956 ft 6 kts 293°
2026-05-05 11:24 40.48849 -3.55367 1957 ft 1 kts 294°
2026-05-05 11:24 40.48858 -3.55394 1957 ft 6 kts 294°
2026-05-05 11:24 40.48890 -3.55459 1958 ft 11 kts 316°
2026-05-05 11:25 40.48965 -3.55539 1961 ft 16 kts 323°
2026-05-05 11:25 40.49068 -3.55641 1960 ft 21 kts 322°
2026-05-05 11:25 40.49191 -3.55768 1967 ft 24 kts 322°
2026-05-05 11:25 40.49288 -3.55867 1968 ft 13 kts 309°
2026-05-05 11:26 40.49298 -3.55988 1965 ft 15 kts 271°
2026-05-05 11:26 40.49301 -3.56127 1964 ft 16 kts 270°
2026-05-05 11:26 40.49312 -3.56231 1968 ft 12 kts 304°
2026-05-05 11:26 40.49330 -3.56295 1968 ft 7 kts 275°
2026-05-05 11:27 40.49331 -3.56343 1972 ft 0 kts 270°
2026-05-05 11:27 40.49331 -3.56348 1970 ft 0 kts 270°